Find Kosmos-1946

NORAD ID: 19163 Int'l Des: 1988-043 Owner: UNKS Country: SU Constellation: GLONASS operational
MEOCIRCULAR

Aktuelle Ansicht

3D-Globus wird geladen...

Über Kosmos-1946

Beschreibung wird geladen...

Nächste Überflüge

Passes for default location (London). Set your location on the main map for personalized predictions.

Höhenverlauf

Loading altitude history...

Zweizeiliger Elementsatz

1 19163U 88043A 26145.50026725 -.00000043 00000-0 00000+0 0 9995
2 19163 64.9553 74.3851 0003996 78.1252 93.2087 2.13103040295115
Epoch: 25. Mai 2026 • Age: 110 hours

Aktueller Status

Höhe 19130.6 km
Geschwindigkeit 3.96 km/s
Subsatellitenpunkt 64.89°N, 109.62°W
Startdatum 21. Mai 1988
Alter 38 years
Typ other

Technische Details

Klassifizierung Payload
Masse 1300.00 kg
Trockenmasse 1200.00 kg
Gesamtmasse 1300.00 kg
Länge 4.00 m
Durchmesser 1.50 m
Spannweite 7.80 m
Form Cyl + Ant + 2 Pan
Hersteller OAZ
Bus-Typ Uragan
Phasenstatus In Orbit
Besitzer/Staat UNKS/SU

Most Searched